Location: Unspecified
(50.7693°N, 0.0000°E)
Time: 17:33:26
(UTC+00:00)

A-11 Canister half - Visible Passes

Search period start: 20 June 2019 00:00
Search period end: 30 June 2019 00:00
Orbit: 1525 x 1684 km, 47.3° (Epoch: 19 June)

Date Brightness Start Highest point End Pass type
(mag) Time Alt. Az. Time Alt. Az. Time Alt. Az.
22 Jun 10.6 02:50:47 10° S 02:57:01 20° SE 03:03:10 10° E visible
23 Jun 10.6 02:29:30 10° S 02:35:30 19° SE 02:41:25 10° E visible
24 Jun 10.6 02:08:15 10° SSE 02:13:59 18° SE 02:19:38 10° E visible
25 Jun 10.6 01:47:01 10° SSE 01:52:28 17° SE 01:57:50 10° E visible
26 Jun 10.6 01:25:50 10° SSE 01:30:57 16° SE 01:36:00 10° E visible
27 Jun 10.6 01:04:41 10° SSE 01:09:26 15° SE 01:14:07 10° E visible
28 Jun 10.6 00:43:39 10° SSE 00:47:55 14° SE 00:52:12 10° E visible
28 Jun 9.6 02:42:11 10° SSW 02:50:52 41° SE 02:59:22 10° E visible
29 Jun 10.6 00:22:53 10° SSE 00:26:24 13° SE 00:30:13 10° E visible
29 Jun 9.6 02:21:09 12° SSW 02:29:18 40° SE 02:37:44 10° E visible
